Regional Weather Roundup
Issued by NWS

Home | Current Version | Previous Version | Text Only | Print | Product List | Glossary On
Versions: 1 2 3 4 5 6 7 8 9 10 11 12 13 14 15 16 17 18 19 20 21 22 23 24 25 26 27
000
ASUS45 KREV 261610
RWRNV
NEVADA REGIONAL WEATHER ROUNDUP
NATIONAL WEATHER SERVICE RENO NV
900 AM PDT TUE JUL 26 2016

NOTE: "FAIR" INDICATES FEW OR NO CLOUDS BELOW 12,000 FEET WITH NO
SIGNIFICANT WEATHER AND/OR OBSTRUCTIONS TO VISIBILITY.

NVZ001-003-004-261700-
WESTERN NEVADA

CITY           SKY/WX    TMP DP  RH WIND       PRES   REMARKS
RENO           MOSUNNY   72  35  25 CALM      30.19S
CARSON CITY    FAIR      68  32  26 CALM      30.22S
MINDEN         FAIR      68  36  30 CALM      30.21F
SLIDE MTN        N/A     63  12  14 SW5         N/A
PYRAMID LAKE     N/A     79 N/A N/A N3          N/A
FALLON         MOSUNNY   81  33  17 VRB3      30.12S
LOVELOCK       SUNNY     81  32  17 SE5       30.12S
HAWTHORNE      SUNNY     81  37  21 CALM      30.16F
$$

NVZ002-CAZ072-073-261700-
NORTHERN AND CENTRAL SIERRA

CITY           SKY/WX    TMP DP  RH WIND       PRES   REMARKS
S. LAKE TAHOE  SUNNY     62  37  39 CALM      30.31R
TRUCKEE        SUNNY     55  37  50 CALM      30.31S
SQUAW VLY 8000 NOT AVBL
SUSANVILLE     SUNNY     73  43  33 CALM      30.17R
MAMMOTH LAKES    N/A     69  32  25 SE6       30.36S
BRIDGEPORT       N/A     64  26  23 CALM      30.31F
$$

NVZ030-031-036-261700-
NORTHERN NEVADA

CITY           SKY/WX    TMP DP  RH WIND       PRES   REMARKS
ELKO           SUNNY     71  17  12 MISG      30.19S
WINNEMUCCA     SUNNY     81  26  13 N3        30.14S
WENDOVER       SUNNY     82  32  16 S3        30.09S
$$

NVZ035-037-261700-
CENTRAL NEVADA

CITY           SKY/WX    TMP DP  RH WIND       PRES   REMARKS
ELY            SUNNY     78  26  14 S7        30.27S
EUREKA           N/A     77  19  11 CALM      30.25S
$$

NVZ013-014-261700-
SOUTH CENTRAL NEVADA

CITY           SKY/WX    TMP DP  RH WIND       PRES   REMARKS
TONOPAH        SUNNY     80  18  10 CALM      30.22S
$$

NVZ017-020-022-261700-
SOUTHERN NEVADA

CITY           SKY/WX    TMP DP  RH WIND       PRES   REMARKS
LAS VEGAS      SUNNY     94  50  22 VRB3      29.91S
N. LAS VEGAS   SUNNY     94  52  24 E5        29.95S
NELLIS AFB     SUNNY     97  57  26 VRB2      29.91S
HENDERSON      SUNNY     95  54  25 CALM      29.99S
MERCURY        SUNNY     92  37  14 CALM      30.03R
$$




USA.gov is the U.S. government's official web portal to all federal, state and local government web resources and services.